Location: Alafon
(8.4500°N, 4.2333°E)
Time: 23:10:34
(UTC+00:00)

Explorer 7 - Pass Details

Date: 30 July 2021
Orbit: 484 x 676 km, 50.3° (Epoch: 22 September)

Event Time Altitude Azimuth Distance (km) Brightness Sun altitude
Rises 01:38:27 0° 178° (S) 2,577 - -52.0°
Maximum altitude 01:43:07 10° 126° (SE) 1,664 - -51.1°
Drops below altitude 10° 01:43:39 10° 118° (ESE) 1,676 - -51.0°
Sets 01:47:43 0° 74° (ENE) 2,531 - -50.3°
